Time,TemperatureF,DewpointF,PressureIn,WindDirection,WindDirectionDegrees,WindSpeedMPH,WindSpeedGustMPH,Humidity,HourlyPrecipIn,Conditions,Clouds,dailyrainin,SoftwareType,DateUTC
2013-02-05 00:00:00,26.4,4.8,29.94,South,180,1.6,2.0,39,0.00,,---,0.00,VWS V14.00,2013-02-05 05:00:00,
2013-02-05 00:05:00,26.4,4.8,29.94,SSW,202,1.6,2.2,39,0.00,,---,0.00,VWS V14.00,2013-02-05 05:05:00,
2013-02-05 00:10:00,26.4,5.4,29.94,South,180,1.6,2.7,40,0.00,,---,0.00,VWS V14.00,2013-02-05 05:10:00,
2013-02-05 00:15:00,26.6,5.6,29.94,SSW,202,2.2,2.2,40,0.00,,---,0.00,VWS V14.00,2013-02-05 05:15:00,
2013-02-05 00:20:00,26.6,5.6,29.94,SSE,158,1.6,1.6,40,0.00,,---,0.00,VWS V14.00,2013-02-05 05:20:00,
2013-02-05 00:25:00,26.6,5.6,29.94,SSW,202,0.0,0.0,40,0.00,,---,0.00,VWS V14.00,2013-02-05 05:25:00,
2013-02-05 00:30:00,26.6,6.1,29.94,West,270,0.0,0.9,41,0.00,,---,0.00,VWS V14.00,2013-02-05 05:30:00,
2013-02-05 00:35:00,26.6,6.1,29.94,South,180,1.3,1.3,41,0.00,,---,0.00,VWS V14.00,2013-02-05 05:35:00,
2013-02-05 00:40:00,26.6,6.1,29.94,SSW,202,2.2,2.2,41,0.00,,---,0.00,VWS V14.00,2013-02-05 05:40:00,
2013-02-05 00:45:00,26.8,5.7,29.94,SSE,158,0.0,0.0,40,0.00,,---,0.00,VWS V14.00,2013-02-05 05:45:00,
2013-02-05 00:50:00,26.8,5.7,29.91,South,180,0.0,0.0,40,0.00,,---,0.00,VWS V14.00,2013-02-05 05:50:00,
2013-02-05 00:55:00,26.8,5.7,29.91,SW,225,0.0,0.0,40,0.00,,---,0.00,VWS V14.00,2013-02-05 05:55:00,
2013-02-05 01:00:00,26.8,5.7,29.91,WSW,248,0.0,0.0,40,0.00,,---,0.00,VWS V14.00,2013-02-05 06:00:00,
2013-02-05 01:05:00,26.8,5.7,29.94,NW,315,0.0,0.0,40,0.00,,---,0.00,VWS V14.00,2013-02-05 06:05:00,
2013-02-05 01:10:00,26.8,6.2,29.94,NW,315,0.0,0.0,41,0.00,,---,0.00,VWS V14.00,2013-02-05 06:10:00,
2013-02-05 01:15:00,26.8,6.2,29.94,NW,315,0.0,0.0,41,0.00,,---,0.00,VWS V14.00,2013-02-05 06:15:00,
2013-02-05 01:20:00,26.8,6.2,29.91,NW,315,0.0,0.0,41,0.00,,---,0.00,VWS V14.00,2013-02-05 06:20:00,
2013-02-05 01:25:00,26.8,6.2,29.91,NW,315,0.0,0.0,41,0.00,,---,0.00,VWS V14.00,2013-02-05 06:25:00,
2013-02-05 01:30:00,26.8,6.2,29.91,NW,315,0.0,0.0,41,0.00,,---,0.00,VWS V14.00,2013-02-05 06:30:00,
2013-02-05 01:35:00,26.8,6.2,29.94,NW,315,0.0,0.0,41,0.00,,---,0.00,VWS V14.00,2013-02-05 06:35:00,
2013-02-05 01:40:00,26.8,6.2,29.94,NW,315,0.0,0.0,41,0.00,,---,0.00,VWS V14.00,2013-02-05 06:40:00,
2013-02-05 01:45:00,26.8,6.2,29.94,NW,315,0.0,0.0,41,0.00,,---,0.00,VWS V14.00,2013-02-05 06:45:00,
2013-02-05 01:50:00,26.8,6.2,29.91,NNW,338,0.0,0.0,41,0.00,,---,0.00,VWS V14.00,2013-02-05 06:50:00,
2013-02-05 01:55:00,26.8,6.2,29.91,NNE,22,0.0,0.0,41,0.00,,---,0.00,VWS V14.00,2013-02-05 06:55:00,
2013-02-05 02:00:00,26.8,6.2,29.91,NNE,22,0.0,0.0,41,0.00,,---,0.00,VWS V14.00,2013-02-05 07:00:00,
2013-02-05 02:05:00,26.8,6.2,29.91,NNE,22,0.0,0.0,41,0.00,,---,0.00,VWS V14.00,2013-02-05 07:05:00,
2013-02-05 02:10:00,26.8,6.2,29.91,NNE,22,0.0,0.0,41,0.00,,---,0.00,VWS V14.00,2013-02-05 07:10:00,
2013-02-05 02:15:00,26.8,6.2,29.91,NNE,22,0.0,0.0,41,0.00,,---,0.00,VWS V14.00,2013-02-05 07:15:00,
2013-02-05 02:20:00,27.0,6.4,29.91,North,0,0.0,0.0,41,0.00,,---,0.00,VWS V14.00,2013-02-05 07:20:00,
2013-02-05 02:25:00,26.8,6.2,29.91,NNW,338,0.0,0.0,41,0.00,,---,0.00,VWS V14.00,2013-02-05 07:25:00,
2013-02-05 02:30:00,26.8,6.2,29.91,North,0,0.0,0.0,41,0.00,,---,0.00,VWS V14.00,2013-02-05 07:30:00,
2013-02-05 02:35:00,26.8,6.2,29.91,NNW,338,0.0,0.0,41,0.00,,---,0.00,VWS V14.00,2013-02-05 07:35:00,
2013-02-05 02:40:00,26.8,6.2,29.91,NNW,338,0.0,0.0,41,0.00,,---,0.00,VWS V14.00,2013-02-05 07:40:00,
2013-02-05 02:45:00,26.6,6.6,29.91,NNW,338,0.0,0.0,42,0.00,,---,0.00,VWS V14.00,2013-02-05 07:45:00,
2013-02-05 02:50:00,26.6,6.6,29.91,NE,45,0.0,0.0,42,0.00,,---,0.00,VWS V14.00,2013-02-05 07:50:00,
2013-02-05 02:55:00,26.6,6.6,29.91,NE,45,0.0,0.0,42,0.00,,---,0.00,VWS V14.00,2013-02-05 07:55:00,
2013-02-05 03:00:00,26.6,6.6,29.91,NE,45,0.0,0.0,42,0.00,,---,0.00,VWS V14.00,2013-02-05 08:00:00,
2013-02-05 03:05:00,26.6,6.6,29.91,NE,45,0.0,0.0,42,0.00,,---,0.00,VWS V14.00,2013-02-05 08:05:00,
2013-02-05 03:10:00,26.6,6.6,29.91,NE,45,0.0,0.0,42,0.00,,---,0.00,VWS V14.00,2013-02-05 08:10:00,
2013-02-05 03:15:00,26.6,6.6,29.91,NE,45,0.0,0.0,42,0.00,,---,0.00,VWS V14.00,2013-02-05 08:15:00,
2013-02-05 03:20:00,26.4,6.4,29.91,NE,45,0.0,0.0,42,0.00,,---,0.00,VWS V14.00,2013-02-05 08:20:00,
2013-02-05 03:25:00,26.4,6.4,29.91,NE,45,0.0,0.0,42,0.00,,---,0.00,VWS V14.00,2013-02-05 08:25:00,
2013-02-05 03:30:00,26.4,7.0,29.91,NE,45,0.0,0.0,43,0.00,,---,0.00,VWS V14.00,2013-02-05 08:30:00,
2013-02-05 03:35:00,26.4,7.0,29.91,NE,45,0.0,0.0,43,0.00,,---,0.00,VWS V14.00,2013-02-05 08:35:00,
2013-02-05 03:40:00,26.2,6.8,29.91,NE,45,0.0,0.0,43,0.00,,---,0.00,VWS V14.00,2013-02-05 08:40:00,
2013-02-05 03:45:00,26.2,6.8,29.91,NNE,22,0.9,1.1,43,0.00,,---,0.00,VWS V14.00,2013-02-05 08:45:00,
2013-02-05 03:50:00,26.2,6.8,29.91,NNE,22,0.0,0.0,43,0.00,,---,0.00,VWS V14.00,2013-02-05 08:50:00,
2013-02-05 03:55:00,26.1,6.6,29.91,ENE,68,1.1,1.1,43,0.00,,---,0.00,VWS V14.00,2013-02-05 08:55:00,
2013-02-05 04:00:00,26.1,7.2,29.91,NE,45,2.2,2.2,44,0.00,,---,0.00,VWS V14.00,2013-02-05 09:00:00,
2013-02-05 04:05:00,26.1,7.2,29.91,NNE,22,0.0,1.1,44,0.00,,---,0.00,VWS V14.00,2013-02-05 09:05:00,
2013-02-05 04:10:00,26.1,7.2,29.91,NE,45,0.0,0.0,44,0.00,,---,0.00,VWS V14.00,2013-02-05 09:10:00,
2013-02-05 04:15:00,25.9,7.0,29.91,NNE,22,0.9,1.6,44,0.00,,---,0.00,VWS V14.00,2013-02-05 09:15:00,
2013-02-05 04:20:00,25.9,7.5,29.91,NE,45,0.0,0.0,45,0.00,,---,0.00,VWS V14.00,2013-02-05 09:20:00,
2013-02-05 04:25:00,25.9,7.5,29.91,ENE,68,0.9,1.6,45,0.00,,---,0.00,VWS V14.00,2013-02-05 09:25:00,
2013-02-05 04:30:00,25.7,7.3,29.91,North,0,0.0,0.0,45,0.00,,---,0.00,VWS V14.00,2013-02-05 09:30:00,
2013-02-05 04:35:00,25.5,7.2,29.91,NNE,22,0.0,0.9,45,0.00,,---,0.00,VWS V14.00,2013-02-05 09:35:00,
2013-02-05 04:40:00,25.5,7.6,29.91,North,0,0.0,0.9,46,0.00,,---,0.00,VWS V14.00,2013-02-05 09:40:00,
2013-02-05 04:45:00,25.3,7.5,29.91,North,0,0.0,0.0,46,0.00,,---,0.00,VWS V14.00,2013-02-05 09:45:00,
2013-02-05 04:50:00,25.3,7.5,29.91,NE,45,1.3,1.3,46,0.00,,---,0.00,VWS V14.00,2013-02-05 09:50:00,
2013-02-05 04:55:00,25.3,7.9,29.91,NNW,338,1.3,1.6,47,0.00,,---,0.00,VWS V14.00,2013-02-05 09:55:00,
2013-02-05 05:00:00,25.3,7.9,29.91,NNE,22,0.0,0.0,47,0.00,,---,0.00,VWS V14.00,2013-02-05 10:00:00,
2013-02-05 05:05:00,25.3,8.4,29.91,North,0,0.0,0.0,48,0.00,,---,0.00,VWS V14.00,2013-02-05 10:05:00,
2013-02-05 05:10:00,25.3,8.4,29.91,North,0,0.0,0.0,48,0.00,,---,0.00,VWS V14.00,2013-02-05 10:10:00,
2013-02-05 05:15:00,25.3,8.4,29.91,NE,45,0.0,0.0,48,0.00,,---,0.00,VWS V14.00,2013-02-05 10:15:00,
2013-02-05 05:20:00,25.3,8.4,29.91,NE,45,0.9,0.9,48,0.00,,---,0.00,VWS V14.00,2013-02-05 10:20:00,
2013-02-05 05:25:00,25.3,8.9,29.91,NNW,338,0.0,0.0,49,0.00,,---,0.00,VWS V14.00,2013-02-05 10:25:00,
2013-02-05 05:30:00,25.3,8.4,29.91,WNW,292,1.1,1.1,48,0.00,,---,0.00,VWS V14.00,2013-02-05 10:30:00,
2013-02-05 05:35:00,25.3,8.9,29.91,North,0,0.9,0.9,49,0.00,,---,0.00,VWS V14.00,2013-02-05 10:35:00,
2013-02-05 05:40:00,25.3,8.9,29.91,NNW,338,0.0,0.0,49,0.00,,---,0.00,VWS V14.00,2013-02-05 10:40:00,
2013-02-05 05:45:00,25.3,9.3,29.91,NNW,338,0.9,0.9,50,0.00,,---,0.00,VWS V14.00,2013-02-05 10:45:00,
2013-02-05 05:50:00,25.3,9.3,29.91,NNW,338,0.0,0.0,50,0.00,,---,0.00,VWS V14.00,2013-02-05 10:50:00,
2013-02-05 05:55:00,25.3,9.3,29.91,NW,315,0.0,0.0,50,0.00,,---,0.00,VWS V14.00,2013-02-05 10:55:00,
2013-02-05 06:00:00,25.3,9.3,29.91,North,0,0.0,0.0,50,0.00,,---,0.00,VWS V14.00,2013-02-05 11:00:00,
2013-02-05 06:05:00,25.2,9.6,29.91,North,0,0.0,0.0,51,0.00,,---,0.00,VWS V14.00,2013-02-05 11:05:00,
2013-02-05 06:10:00,25.2,9.6,29.91,NE,45,0.0,0.0,51,0.00,,---,0.00,VWS V14.00,2013-02-05 11:10:00,
2013-02-05 06:15:00,25.2,9.6,29.91,NE,45,1.1,1.1,51,0.00,,---,0.00,VWS V14.00,2013-02-05 11:15:00,
2013-02-05 06:20:00,25.2,10.0,29.91,NE,45,0.0,2.7,52,0.00,,---,0.00,VWS V14.00,2013-02-05 11:20:00,
2013-02-05 06:25:00,25.0,9.9,29.91,NNE,22,0.0,0.0,52,0.00,,---,0.00,VWS V14.00,2013-02-05 11:25:00,
2013-02-05 06:30:00,25.0,9.9,29.91,NNE,22,0.0,0.0,52,0.00,,---,0.00,VWS V14.00,2013-02-05 11:30:00,
2013-02-05 06:35:00,25.0,9.9,29.91,NNE,22,0.0,1.1,52,0.00,,---,0.00,VWS V14.00,2013-02-05 11:35:00,
2013-02-05 06:40:00,25.0,9.9,29.91,NNE,22,0.0,0.0,52,0.00,,---,0.00,VWS V14.00,2013-02-05 11:40:00,
2013-02-05 06:45:00,25.0,10.3,29.91,NNW,338,0.0,0.0,53,0.00,,---,0.00,VWS V14.00,2013-02-05 11:45:00,
2013-02-05 06:50:00,25.0,10.3,29.91,NNE,22,0.0,0.9,53,0.00,,---,0.00,VWS V14.00,2013-02-05 11:50:00,
2013-02-05 06:55:00,25.0,10.3,29.91,NNW,338,0.0,0.0,53,0.00,,---,0.00,VWS V14.00,2013-02-05 11:55:00,
2013-02-05 07:00:00,24.8,10.1,29.91,North,0,1.1,1.1,53,0.00,,---,0.00,VWS V14.00,2013-02-05 12:00:00,
2013-02-05 07:05:00,25.0,10.3,29.91,ENE,68,0.0,0.0,53,0.00,,---,0.00,VWS V14.00,2013-02-05 12:05:00,
2013-02-05 07:10:00,25.0,10.3,29.91,NNW,338,1.6,1.6,53,0.00,,---,0.00,VWS V14.00,2013-02-05 12:10:00,
2013-02-05 07:15:00,25.0,10.7,29.91,North,0,0.0,0.0,54,0.00,,---,0.00,VWS V14.00,2013-02-05 12:15:00,
2013-02-05 07:20:00,25.0,10.7,29.94,East,90,0.0,0.9,54,0.00,,---,0.00,VWS V14.00,2013-02-05 12:20:00,
2013-02-05 07:25:00,25.0,10.7,29.94,East,90,1.6,1.6,54,0.00,,---,0.00,VWS V14.00,2013-02-05 12:25:00,
2013-02-05 07:30:00,25.2,10.9,29.94,North,0,0.0,0.0,54,0.00,,---,0.00,VWS V14.00,2013-02-05 12:30:00,
2013-02-05 07:35:00,25.2,10.9,29.94,North,0,1.3,1.3,54,0.00,,---,0.00,VWS V14.00,2013-02-05 12:35:00,
2013-02-05 07:40:00,25.2,10.9,29.94,NNE,22,1.1,1.6,54,0.00,,---,0.00,VWS V14.00,2013-02-05 12:40:00,
2013-02-05 07:45:00,25.2,10.9,29.94,NNW,338,1.3,1.6,54,0.00,,---,0.00,VWS V14.00,2013-02-05 12:45:00,
2013-02-05 07:50:00,25.3,11.0,29.94,NW,315,0.9,0.9,54,0.00,,---,0.00,VWS V14.00,2013-02-05 12:50:00,
2013-02-05 07:55:00,25.3,11.4,29.94,North,0,2.5,2.5,55,0.00,,---,0.00,VWS V14.00,2013-02-05 12:55:00,
2013-02-05 08:00:00,25.3,11.4,29.94,NNE,22,1.1,1.1,55,0.00,,---,0.00,VWS V14.00,2013-02-05 13:00:00,
2013-02-05 08:05:00,25.3,11.4,29.94,North,0,0.0,0.0,55,0.00,,---,0.00,VWS V14.00,2013-02-05 13:05:00,
2013-02-05 08:10:00,25.5,11.6,29.94,North,0,0.0,0.0,55,0.00,,---,0.00,VWS V14.00,2013-02-05 13:10:00,
2013-02-05 08:15:00,25.5,11.6,29.94,North,0,0.0,0.0,55,0.00,,---,0.00,VWS V14.00,2013-02-05 13:15:00,
2013-02-05 08:20:00,25.5,11.6,29.94,North,0,0.9,0.9,55,0.00,,---,0.00,VWS V14.00,2013-02-05 13:20:00,
2013-02-05 08:25:00,25.5,11.6,29.94,NNW,338,0.9,0.9,55,0.00,,---,0.00,VWS V14.00,2013-02-05 13:25:00,
2013-02-05 08:30:00,25.7,11.8,29.94,North,0,2.0,2.0,55,0.00,,---,0.00,VWS V14.00,2013-02-05 13:30:00,
2013-02-05 08:35:00,25.7,11.8,29.97,North,0,0.0,0.0,55,0.00,,---,0.00,VWS V14.00,2013-02-05 13:35:00,
2013-02-05 08:40:00,25.9,11.9,29.97,North,0,0.0,0.0,55,0.00,,---,0.00,VWS V14.00,2013-02-05 13:40:00,
2013-02-05 08:45:00,25.9,11.9,29.97,NNE,22,1.3,2.9,55,0.00,,---,0.00,VWS V14.00,2013-02-05 13:45:00,
2013-02-05 08:50:00,25.9,11.9,29.97,NE,45,0.0,0.0,55,0.00,,---,0.00,VWS V14.00,2013-02-05 13:50:00,
2013-02-05 08:55:00,25.9,11.9,29.97,North,0,0.0,2.7,55,0.00,,---,0.00,VWS V14.00,2013-02-05 13:55:00,
2013-02-05 09:00:00,26.1,12.1,29.97,North,0,0.0,1.6,55,0.00,,---,0.00,VWS V14.00,2013-02-05 14:00:00,
2013-02-05 09:05:00,26.1,12.1,29.94,NNE,22,0.0,0.0,55,0.00,,---,0.00,VWS V14.00,2013-02-05 14:05:00,
2013-02-05 09:10:00,26.4,12.9,29.94,NNE,22,2.7,2.7,56,0.00,,---,0.00,VWS V14.00,2013-02-05 14:10:00,
2013-02-05 09:15:00,26.6,13.0,29.94,NE,45,1.3,1.3,56,0.00,,---,0.00,VWS V14.00,2013-02-05 14:15:00,
2013-02-05 09:20:00,26.8,12.8,29.94,NE,45,2.0,2.2,55,0.00,,---,0.00,VWS V14.00,2013-02-05 14:20:00,
2013-02-05 09:25:00,27.0,13.0,29.94,NNW,338,0.0,1.6,55,0.00,,---,0.00,VWS V14.00,2013-02-05 14:25:00,
2013-02-05 09:30:00,27.0,13.0,29.94,East,90,2.5,2.5,55,0.00,,---,0.00,VWS V14.00,2013-02-05 14:30:00,
2013-02-05 09:35:00,27.3,13.3,29.94,NNW,338,0.0,2.0,55,0.00,,---,0.00,VWS V14.00,2013-02-05 14:35:00,
2013-02-05 09:40:00,27.5,13.5,29.94,North,0,0.0,0.0,55,0.00,,---,0.00,VWS V14.00,2013-02-05 14:40:00,
2013-02-05 09:45:00,27.5,13.5,29.94,North,0,0.0,0.0,55,0.00,,---,0.00,VWS V14.00,2013-02-05 14:45:00,
2013-02-05 09:50:00,27.9,13.8,29.97,NNW,338,2.2,2.2,55,0.00,,---,0.00,VWS V14.00,2013-02-05 14:50:00,
2013-02-05 09:55:00,27.9,13.8,29.97,NNE,22,0.0,0.0,55,0.00,,---,0.00,VWS V14.00,2013-02-05 14:55:00,
2013-02-05 10:00:00,28.0,14.0,29.97,South,180,1.1,1.6,55,0.00,,---,0.00,VWS V14.00,2013-02-05 15:00:00,
2013-02-05 10:05:00,28.2,14.1,29.97,ENE,68,3.6,3.6,55,0.00,,---,0.00,VWS V14.00,2013-02-05 15:05:00,
2013-02-05 10:10:00,28.2,13.7,29.97,ENE,68,3.6,3.6,54,0.00,,---,0.00,VWS V14.00,2013-02-05 15:10:00,
2013-02-05 10:15:00,28.4,13.9,29.97,ENE,68,3.6,3.6,54,0.00,,---,0.00,VWS V14.00,2013-02-05 15:15:00,
2013-02-05 10:20:00,28.4,13.9,29.97,ENE,68,3.6,3.6,54,0.00,,---,0.00,VWS V14.00,2013-02-05 15:20:00,
2013-02-05 10:25:00,28.4,13.9,29.97,ENE,68,3.6,3.6,54,0.00,,---,0.00,VWS V14.00,2013-02-05 15:25:00,
2013-02-05 10:30:00,28.6,14.1,29.97,ENE,68,3.6,3.6,54,0.00,,---,0.00,VWS V14.00,2013-02-05 15:30:00,
2013-02-05 10:35:00,28.4,13.9,29.97,ENE,68,3.6,3.6,54,0.00,,---,0.00,VWS V14.00,2013-02-05 15:35:00,
2013-02-05 10:40:00,28.6,13.6,29.97,ENE,68,3.6,3.6,53,0.00,,---,0.00,VWS V14.00,2013-02-05 15:40:00,
2013-02-05 10:45:00,28.6,13.6,29.97,ENE,68,3.6,3.6,53,0.00,,---,0.00,VWS V14.00,2013-02-05 15:45:00,
2013-02-05 10:50:00,28.6,13.6,29.97,ENE,68,3.6,3.6,53,0.00,,---,0.00,VWS V14.00,2013-02-05 15:50:00,
2013-02-05 10:55:00,28.6,13.6,29.97,ENE,68,3.6,3.6,53,0.00,,---,0.00,VWS V14.00,2013-02-05 15:55:00,
2013-02-05 11:00:00,28.8,13.8,29.97,ENE,68,3.6,3.6,53,0.00,,---,0.00,VWS V14.00,2013-02-05 16:00:00,
2013-02-05 11:05:00,28.8,13.8,29.97,ENE,68,3.6,3.6,53,0.00,,---,0.00,VWS V14.00,2013-02-05 16:05:00,
2013-02-05 11:10:00,28.8,13.8,29.97,ENE,68,3.6,3.6,53,0.00,,---,0.00,VWS V14.00,2013-02-05 16:10:00,
2013-02-05 11:15:00,28.8,13.8,29.97,ENE,68,3.6,3.6,53,0.00,,---,0.00,VWS V14.00,2013-02-05 16:15:00,
2013-02-05 11:20:00,28.8,13.8,29.97,ENE,68,3.6,3.6,53,0.00,,---,0.00,VWS V14.00,2013-02-05 16:20:00,
2013-02-05 11:25:00,28.8,13.8,29.97,ENE,68,3.6,3.6,53,0.00,,---,0.00,VWS V14.00,2013-02-05 16:25:00,
2013-02-05 11:30:00,28.6,13.6,29.97,ENE,68,3.6,3.6,53,0.00,,---,0.00,VWS V14.00,2013-02-05 16:30:00,
2013-02-05 11:35:00,28.6,13.2,29.94,ENE,68,3.6,3.6,52,0.00,,---,0.00,VWS V14.00,2013-02-05 16:35:00,
2013-02-05 11:40:00,28.6,13.2,29.94,ENE,68,3.6,3.6,52,0.00,,---,0.00,VWS V14.00,2013-02-05 16:40:00,
2013-02-05 11:45:00,28.6,13.6,29.94,ENE,68,3.6,3.6,53,0.00,,---,0.00,VWS V14.00,2013-02-05 16:45:00,
2013-02-05 11:50:00,28.6,13.6,29.94,ENE,68,3.6,3.6,53,0.00,,---,0.00,VWS V14.00,2013-02-05 16:50:00,
2013-02-05 11:55:00,28.8,13.4,29.94,ENE,68,3.6,3.6,52,0.00,,---,0.00,VWS V14.00,2013-02-05 16:55:00,
2013-02-05 12:00:00,28.8,13.4,29.94,ENE,68,3.6,3.6,52,0.00,,---,0.00,VWS V14.00,2013-02-05 17:00:00,
2013-02-05 12:05:00,28.8,13.4,29.94,ENE,68,3.6,3.6,52,0.00,,---,0.00,VWS V14.00,2013-02-05 17:05:00,
2013-02-05 12:10:00,28.9,13.5,29.94,ENE,68,3.6,3.6,52,0.00,,---,0.00,VWS V14.00,2013-02-05 17:10:00,
2013-02-05 12:15:00,28.9,13.5,29.94,ENE,68,3.6,3.6,52,0.00,,---,0.00,VWS V14.00,2013-02-05 17:15:00,
2013-02-05 12:20:00,28.9,13.5,29.94,ENE,68,3.6,3.6,52,0.00,,---,0.00,VWS V14.00,2013-02-05 17:20:00,
2013-02-05 12:25:00,28.9,13.5,29.94,ENE,68,3.6,3.6,52,0.00,,---,0.00,VWS V14.00,2013-02-05 17:25:00,
2013-02-05 12:30:00,28.8,13.4,29.94,ENE,68,3.6,3.6,52,0.00,,---,0.00,VWS V14.00,2013-02-05 17:30:00,
2013-02-05 12:35:00,28.8,13.4,29.94,ENE,68,3.6,3.6,52,0.00,,---,0.00,VWS V14.00,2013-02-05 17:35:00,
2013-02-05 12:40:00,28.9,13.5,29.94,ENE,68,3.6,3.6,52,0.00,,---,0.00,VWS V14.00,2013-02-05 17:40:00,
2013-02-05 12:45:00,28.9,13.5,29.94,ENE,68,3.6,3.6,52,0.00,,---,0.00,VWS V14.00,2013-02-05 17:45:00,
2013-02-05 12:50:00,28.9,13.5,29.94,ENE,68,3.6,3.6,52,0.00,,---,0.00,VWS V14.00,2013-02-05 17:50:00,
2013-02-05 12:55:00,29.1,13.7,29.94,ENE,68,3.6,3.6,52,0.00,,---,0.00,VWS V14.00,2013-02-05 17:55:00,
2013-02-05 13:00:00,29.1,13.7,29.94,ENE,68,3.6,3.6,52,0.00,,---,0.00,VWS V14.00,2013-02-05 18:00:00,
2013-02-05 13:05:00,29.3,13.9,29.94,ENE,68,3.6,3.6,52,0.00,,---,0.00,VWS V14.00,2013-02-05 18:05:00,
2013-02-05 13:10:00,29.3,13.9,29.94,ENE,68,3.6,3.6,52,0.00,,---,0.00,VWS V14.00,2013-02-05 18:10:00,
2013-02-05 13:15:00,29.5,14.0,29.94,ENE,68,3.6,3.6,52,0.00,,---,0.00,VWS V14.00,2013-02-05 18:15:00,
2013-02-05 13:20:00,29.5,14.0,29.91,ENE,68,3.6,3.6,52,0.00,,---,0.00,VWS V14.00,2013-02-05 18:20:00,
2013-02-05 13:25:00,29.5,14.0,29.91,ENE,68,3.6,3.6,52,0.00,,---,0.00,VWS V14.00,2013-02-05 18:25:00,
2013-02-05 13:30:00,29.5,14.0,29.91,ENE,68,3.6,3.6,52,0.00,,---,0.00,VWS V14.00,2013-02-05 18:30:00,
2013-02-05 13:35:00,29.5,14.0,29.91,ENE,68,3.6,3.6,52,0.00,,---,0.00,VWS V14.00,2013-02-05 18:35:00,
2013-02-05 13:40:00,29.7,14.2,29.91,ENE,68,3.6,3.6,52,0.00,,---,0.00,VWS V14.00,2013-02-05 18:40:00,
2013-02-05 13:45:00,29.8,14.4,29.91,ENE,68,3.6,3.6,52,0.00,,---,0.00,VWS V14.00,2013-02-05 18:45:00,
2013-02-05 13:50:00,30.0,14.5,29.88,ENE,68,3.6,3.6,52,0.00,,---,0.00,VWS V14.00,2013-02-05 18:50:00,
2013-02-05 13:55:00,30.0,14.5,29.88,NNE,22,0.0,0.0,52,0.00,,---,0.00,VWS V14.00,2013-02-05 18:55:00,
2013-02-05 14:00:00,29.8,14.4,29.88,NNE,22,0.0,0.0,52,0.00,,---,0.00,VWS V14.00,2013-02-05 19:00:00,
2013-02-05 14:05:00,29.8,14.4,29.91,NNE,22,0.0,0.0,52,0.00,,---,0.00,VWS V14.00,2013-02-05 19:05:00,
2013-02-05 14:10:00,30.0,14.5,29.91,NNE,22,0.0,0.0,52,0.00,,---,0.00,VWS V14.00,2013-02-05 19:10:00,
2013-02-05 14:15:00,30.0,14.5,29.91,NNE,22,0.0,0.0,52,0.00,,---,0.00,VWS V14.00,2013-02-05 19:15:00,
2013-02-05 14:20:00,30.2,14.7,29.91,NNE,22,0.0,0.0,52,0.00,,---,0.00,VWS V14.00,2013-02-05 19:20:00,
2013-02-05 14:25:00,30.2,14.7,29.91,NNE,22,0.0,0.0,52,0.00,,---,0.00,VWS V14.00,2013-02-05 19:25:00,
2013-02-05 14:30:00,30.2,14.7,29.91,NE,45,1.3,1.3,52,0.00,,---,0.00,VWS V14.00,2013-02-05 19:30:00,
2013-02-05 14:35:00,30.2,14.7,29.91,NE,45,1.3,1.3,52,0.00,,---,0.00,VWS V14.00,2013-02-05 19:35:00,
2013-02-05 14:40:00,30.2,14.7,29.91,NE,45,1.3,1.3,52,0.00,,---,0.00,VWS V14.00,2013-02-05 19:40:00,
2013-02-05 14:45:00,30.2,14.7,29.91,NE,45,1.3,1.3,52,0.00,,---,0.00,VWS V14.00,2013-02-05 19:45:00,
2013-02-05 14:50:00,30.0,14.5,29.91,ENE,68,2.2,2.2,52,0.00,,---,0.00,VWS V14.00,2013-02-05 19:50:00,
2013-02-05 14:55:00,30.2,14.7,29.91,SE,135,1.6,1.6,52,0.00,,---,0.00,VWS V14.00,2013-02-05 19:55:00,
2013-02-05 15:00:00,30.2,14.7,29.91,East,90,2.7,2.7,52,0.00,,---,0.00,VWS V14.00,2013-02-05 20:00:00,
2013-02-05 15:05:00,30.0,14.5,29.91,East,90,3.1,3.1,52,0.00,,---,0.00,VWS V14.00,2013-02-05 20:05:00,
2013-02-05 15:10:00,30.0,14.5,29.91,ENE,68,0.0,0.0,52,0.00,,---,0.00,VWS V14.00,2013-02-05 20:10:00,
2013-02-05 15:15:00,29.8,14.4,29.91,South,180,3.1,3.1,52,0.00,,---,0.00,VWS V14.00,2013-02-05 20:15:00,
2013-02-05 15:20:00,29.7,14.2,29.91,ENE,68,1.6,1.6,52,0.00,,---,0.00,VWS V14.00,2013-02-05 20:20:00,
2013-02-05 15:25:00,29.7,14.2,29.91,ESE,112,1.3,1.3,52,0.00,,---,0.00,VWS V14.00,2013-02-05 20:25:00,
2013-02-05 15:30:00,29.7,14.2,29.91,ESE,112,1.3,1.3,52,0.00,,---,0.00,VWS V14.00,2013-02-05 20:30:00,
2013-02-05 15:35:00,29.5,14.5,29.91,ESE,112,1.3,1.3,53,0.00,,---,0.00,VWS V14.00,2013-02-05 20:35:00,
2013-02-05 15:40:00,29.5,14.5,29.91,ESE,112,1.6,1.6,53,0.00,,---,0.00,VWS V14.00,2013-02-05 20:40:00,
2013-02-05 15:45:00,29.5,14.0,29.91,ESE,112,1.6,1.6,52,0.00,,---,0.00,VWS V14.00,2013-02-05 20:45:00,
2013-02-05 15:50:00,29.5,14.5,29.91,ESE,112,1.6,1.6,53,0.00,,---,0.00,VWS V14.00,2013-02-05 20:50:00,
2013-02-05 15:55:00,29.5,14.5,29.91,NE,45,2.9,2.9,53,0.00,,---,0.00,VWS V14.00,2013-02-05 20:55:00,
2013-02-05 16:00:00,29.5,14.5,29.91,NE,45,0.0,0.0,53,0.00,,---,0.00,VWS V14.00,2013-02-05 21:00:00,
2013-02-05 16:05:00,29.5,14.5,29.91,ENE,68,3.4,3.4,53,0.00,,---,0.00,VWS V14.00,2013-02-05 21:05:00,
2013-02-05 16:10:00,29.5,14.5,29.91,ENE,68,3.4,3.4,53,0.00,,---,0.00,VWS V14.00,2013-02-05 21:10:00,
2013-02-05 16:15:00,29.5,14.5,29.91,East,90,2.0,2.0,53,0.00,,---,0.00,VWS V14.00,2013-02-05 21:15:00,
2013-02-05 16:20:00,29.3,14.3,29.91,East,90,2.0,2.0,53,0.00,,---,0.00,VWS V14.00,2013-02-05 21:20:00,
2013-02-05 16:25:00,29.3,14.3,29.91,East,90,2.0,2.0,53,0.00,,---,0.00,VWS V14.00,2013-02-05 21:25:00,
2013-02-05 16:30:00,29.3,14.3,29.91,East,90,2.0,2.0,53,0.00,,---,0.00,VWS V14.00,2013-02-05 21:30:00,
2013-02-05 16:35:00,29.3,14.3,29.91,NNE,22,0.0,1.6,53,0.00,,---,0.00,VWS V14.00,2013-02-05 21:35:00,
2013-02-05 16:40:00,29.3,14.7,29.91,NNE,22,1.1,1.1,54,0.00,,---,0.00,VWS V14.00,2013-02-05 21:40:00,
2013-02-05 16:45:00,29.3,14.7,29.91,ENE,68,2.2,2.2,54,0.00,,---,0.00,VWS V14.00,2013-02-05 21:45:00,
2013-02-05 16:50:00,29.1,14.6,29.88,ENE,68,1.1,2.2,54,0.00,,---,0.00,VWS V14.00,2013-02-05 21:50:00,
2013-02-05 16:55:00,29.1,14.6,29.88,East,90,0.0,0.0,54,0.00,,---,0.00,VWS V14.00,2013-02-05 21:55:00,
2013-02-05 17:00:00,29.1,14.6,29.88,East,90,0.0,0.0,54,0.00,,---,0.00,VWS V14.00,2013-02-05 22:00:00,
2013-02-05 17:05:00,29.1,14.6,29.91,ENE,68,1.1,1.1,54,0.00,,---,0.00,VWS V14.00,2013-02-05 22:05:00,
2013-02-05 17:10:00,29.1,14.6,29.91,ENE,68,2.5,2.7,54,0.00,,---,0.00,VWS V14.00,2013-02-05 22:10:00,
2013-02-05 17:15:00,28.9,14.4,29.91,ENE,68,2.5,2.5,54,0.00,,---,0.00,VWS V14.00,2013-02-05 22:15:00,
2013-02-05 17:20:00,28.9,14.4,29.91,ENE,68,0.9,0.9,54,0.00,,---,0.00,VWS V14.00,2013-02-05 22:20:00,
2013-02-05 17:25:00,28.9,14.4,29.91,NNE,22,0.0,1.3,54,0.00,,---,0.00,VWS V14.00,2013-02-05 22:25:00,
2013-02-05 17:30:00,28.8,14.2,29.91,ENE,68,2.2,2.2,54,0.00,,---,0.00,VWS V14.00,2013-02-05 22:30:00,
2013-02-05 17:35:00,28.8,14.2,29.91,NNW,338,1.1,1.1,54,0.00,,---,0.00,VWS V14.00,2013-02-05 22:35:00,
2013-02-05 17:40:00,28.8,14.2,29.91,ENE,68,0.0,1.3,54,0.00,,---,0.00,VWS V14.00,2013-02-05 22:40:00,
2013-02-05 17:45:00,28.8,14.6,29.91,ENE,68,1.1,1.1,55,0.00,,---,0.00,VWS V14.00,2013-02-05 22:45:00,
2013-02-05 17:50:00,28.8,14.6,29.91,NE,45,3.8,3.8,55,0.00,,---,0.00,VWS V14.00,2013-02-05 22:50:00,
2013-02-05 17:55:00,28.8,14.6,29.91,NE,45,0.9,0.9,55,0.00,,---,0.00,VWS V14.00,2013-02-05 22:55:00,
2013-02-05 18:00:00,28.8,14.6,29.91,NE,45,2.5,2.5,55,0.00,,---,0.00,VWS V14.00,2013-02-05 23:00:00,
2013-02-05 18:05:00,28.8,14.6,29.91,NE,45,2.5,2.5,55,0.00,,---,0.00,VWS V14.00,2013-02-05 23:05:00,
2013-02-05 18:10:00,28.8,14.6,29.91,NE,45,2.5,2.5,55,0.00,,---,0.00,VWS V14.00,2013-02-05 23:10:00,
2013-02-05 18:15:00,28.8,15.1,29.91,NE,45,2.5,2.5,56,0.00,,---,0.00,VWS V14.00,2013-02-05 23:15:00,
2013-02-05 18:20:00,28.8,15.1,29.91,NE,45,2.5,2.5,56,0.00,,---,0.00,VWS V14.00,2013-02-05 23:20:00,
2013-02-05 18:25:00,28.8,15.1,29.91,NE,45,2.5,2.5,56,0.00,,---,0.00,VWS V14.00,2013-02-05 23:25:00,
2013-02-05 18:30:00,28.8,15.1,29.91,NE,45,2.5,2.5,56,0.00,,---,0.00,VWS V14.00,2013-02-05 23:30:00,
2013-02-05 18:35:00,28.9,15.2,29.88,NE,45,2.5,2.5,56,0.00,,---,0.00,VWS V14.00,2013-02-05 23:35:00,
2013-02-05 18:40:00,28.9,15.2,29.88,NE,45,2.5,2.5,56,0.00,,---,0.00,VWS V14.00,2013-02-05 23:40:00,
2013-02-05 18:45:00,28.9,15.2,29.88,NE,45,2.5,2.5,56,0.00,,---,0.00,VWS V14.00,2013-02-05 23:45:00,
2013-02-05 18:50:00,28.9,15.2,29.91,NE,45,2.5,2.5,56,0.00,,---,0.00,VWS V14.00,2013-02-05 23:50:00,
2013-02-05 18:55:00,28.9,15.6,29.91,NE,45,2.5,2.5,57,0.00,,---,0.00,VWS V14.00,2013-02-05 23:55:00,
2013-02-05 19:00:00,28.8,15.5,29.91,NE,45,2.5,2.5,57,0.00,,---,0.00,VWS V14.00,2013-02-06 00:00:00,
2013-02-05 19:05:00,28.8,15.5,29.88,NE,45,2.5,2.5,57,0.00,,---,0.00,VWS V14.00,2013-02-06 00:05:00,
2013-02-05 19:10:00,28.8,15.9,29.88,NE,45,2.5,2.5,58,0.00,,---,0.00,VWS V14.00,2013-02-06 00:10:00,
2013-02-05 19:15:00,28.8,15.9,29.88,NE,45,2.5,2.5,58,0.00,,---,0.00,VWS V14.00,2013-02-06 00:15:00,
2013-02-05 19:20:00,28.8,15.9,29.91,NE,45,2.5,2.5,58,0.00,,---,0.00,VWS V14.00,2013-02-06 00:20:00,
2013-02-05 19:25:00,28.8,15.9,29.91,NE,45,2.5,2.5,58,0.00,,---,0.00,VWS V14.00,2013-02-06 00:25:00,
2013-02-05 19:30:00,28.9,16.4,29.91,NE,45,2.5,2.5,59,0.00,,---,0.00,VWS V14.00,2013-02-06 00:30:00,
2013-02-05 19:35:00,28.9,16.4,29.88,NE,45,2.5,2.5,59,0.00,,---,0.00,VWS V14.00,2013-02-06 00:35:00,
2013-02-05 19:40:00,28.8,16.2,29.88,NE,45,2.5,2.5,59,0.00,,---,0.00,VWS V14.00,2013-02-06 00:40:00,
2013-02-05 19:45:00,28.8,16.2,29.88,NE,45,2.5,2.5,59,0.00,,---,0.00,VWS V14.00,2013-02-06 00:45:00,
2013-02-05 19:50:00,28.8,16.2,29.88,NE,45,2.5,2.5,59,0.00,,---,0.00,VWS V14.00,2013-02-06 00:50:00,
2013-02-05 19:55:00,28.8,16.6,29.88,NE,45,2.5,2.5,60,0.00,,---,0.00,VWS V14.00,2013-02-06 00:55:00,
2013-02-05 20:00:00,28.8,16.6,29.88,NE,45,2.5,2.5,60,0.00,,---,0.00,VWS V14.00,2013-02-06 01:00:00,
2013-02-05 20:05:00,28.8,16.6,29.91,NE,45,2.5,2.5,60,0.00,,---,0.00,VWS V14.00,2013-02-06 01:05:00,
2013-02-05 20:10:00,28.8,16.6,29.91,NE,45,2.5,2.5,60,0.00,,---,0.00,VWS V14.00,2013-02-06 01:10:00,
2013-02-05 20:15:00,28.8,17.0,29.91,NE,45,2.5,2.5,61,0.00,,---,0.00,VWS V14.00,2013-02-06 01:15:00,
2013-02-05 20:20:00,28.8,17.0,29.91,NE,45,2.5,2.5,61,0.00,,---,0.00,VWS V14.00,2013-02-06 01:20:00,
2013-02-05 20:25:00,28.8,17.0,29.91,NE,45,2.5,2.5,61,0.00,,---,0.00,VWS V14.00,2013-02-06 01:25:00,
2013-02-05 20:30:00,28.6,16.9,29.91,NE,45,2.5,2.5,61,0.00,,---,0.00,VWS V14.00,2013-02-06 01:30:00,
2013-02-05 20:35:00,28.6,16.9,29.91,NE,45,2.5,2.5,61,0.00,,---,0.00,VWS V14.00,2013-02-06 01:35:00,
2013-02-05 20:40:00,28.8,17.4,29.91,NE,45,2.5,2.5,62,0.00,,---,0.00,VWS V14.00,2013-02-06 01:40:00,
2013-02-05 20:45:00,28.8,17.4,29.91,NNE,22,0.0,0.0,62,0.00,,---,0.00,VWS V14.00,2013-02-06 01:45:00,
2013-02-05 20:50:00,28.8,17.4,29.88,NNE,22,0.0,0.0,62,0.00,,---,0.00,VWS V14.00,2013-02-06 01:50:00,
2013-02-05 20:55:00,28.8,17.4,29.88,NNE,22,0.0,0.0,62,0.00,,---,0.00,VWS V14.00,2013-02-06 01:55:00,
2013-02-05 21:00:00,28.8,17.4,29.88,NNE,22,0.0,0.0,62,0.00,,---,0.00,VWS V14.00,2013-02-06 02:00:00,
2013-02-05 21:05:00,28.8,17.4,29.91,NNE,22,0.0,0.0,62,0.00,,---,0.00,VWS V14.00,2013-02-06 02:05:00,
2013-02-05 21:10:00,28.8,17.4,29.91,NE,45,1.1,2.0,62,0.00,,---,0.00,VWS V14.00,2013-02-06 02:10:00,
2013-02-05 21:15:00,28.8,17.4,29.91,NE,45,0.0,0.0,62,0.00,,---,0.00,VWS V14.00,2013-02-06 02:15:00,
2013-02-05 21:20:00,28.9,17.6,29.88,NE,45,0.0,0.0,62,0.00,,---,0.00,VWS V14.00,2013-02-06 02:20:00,
2013-02-05 21:25:00,28.9,17.6,29.88,NE,45,0.0,0.0,62,0.00,,---,0.00,VWS V14.00,2013-02-06 02:25:00,
2013-02-05 21:30:00,28.9,17.9,29.88,NE,45,0.0,0.0,63,0.00,,---,0.00,VWS V14.00,2013-02-06 02:30:00,
2013-02-05 21:35:00,28.9,17.9,29.91,NE,45,0.0,0.0,63,0.00,,---,0.00,VWS V14.00,2013-02-06 02:35:00,
2013-02-05 21:40:00,28.9,17.9,29.91,NE,45,0.0,0.0,63,0.00,,---,0.00,VWS V14.00,2013-02-06 02:40:00,
2013-02-05 21:45:00,28.9,17.9,29.91,NE,45,0.0,0.0,63,0.00,,---,0.00,VWS V14.00,2013-02-06 02:45:00,
2013-02-05 21:50:00,28.9,17.9,29.91,NE,45,0.0,0.0,63,0.00,,---,0.00,VWS V14.00,2013-02-06 02:50:00,
2013-02-05 21:55:00,28.9,17.9,29.91,NE,45,0.0,0.9,63,0.00,,---,0.00,VWS V14.00,2013-02-06 02:55:00,
2013-02-05 22:00:00,28.9,17.9,29.91,NE,45,0.0,0.0,63,0.00,,---,0.00,VWS V14.00,2013-02-06 03:00:00,
2013-02-05 22:05:00,28.9,17.9,29.91,NE,45,1.6,1.6,63,0.00,,---,0.00,VWS V14.00,2013-02-06 03:05:00,
2013-02-05 22:10:00,28.9,17.9,29.91,NE,45,0.0,0.9,63,0.00,,---,0.00,VWS V14.00,2013-02-06 03:10:00,
2013-02-05 22:15:00,28.9,17.6,29.91,NNE,22,0.0,0.0,62,0.00,,---,0.00,VWS V14.00,2013-02-06 03:15:00,
2013-02-05 22:20:00,28.9,17.9,29.88,NW,315,0.0,0.0,63,0.00,,---,0.00,VWS V14.00,2013-02-06 03:20:00,
2013-02-05 22:25:00,28.9,17.9,29.88,NNE,22,0.0,0.0,63,0.00,,---,0.00,VWS V14.00,2013-02-06 03:25:00,
2013-02-05 22:30:00,28.9,17.9,29.88,NNE,22,0.0,0.0,63,0.00,,---,0.00,VWS V14.00,2013-02-06 03:30:00,
2013-02-05 22:35:00,28.9,17.9,29.91,NNW,338,0.0,0.0,63,0.00,,---,0.00,VWS V14.00,2013-02-06 03:35:00,
2013-02-05 22:40:00,28.9,17.9,29.91,North,0,0.9,0.9,63,0.00,,---,0.00,VWS V14.00,2013-02-06 03:40:00,
2013-02-05 22:45:00,28.9,17.9,29.91,NW,315,0.0,0.0,63,0.00,,---,0.00,VWS V14.00,2013-02-06 03:45:00,
2013-02-05 22:50:00,28.9,17.9,29.91,NW,315,0.0,0.0,63,0.00,,---,0.00,VWS V14.00,2013-02-06 03:50:00,
2013-02-05 22:55:00,28.8,17.8,29.91,North,0,0.0,0.0,63,0.00,,---,0.00,VWS V14.00,2013-02-06 03:55:00,
2013-02-05 23:00:00,28.8,18.1,29.91,NNW,338,0.0,0.0,64,0.00,,---,0.00,VWS V14.00,2013-02-06 04:00:00,
2013-02-05 23:05:00,28.8,18.1,29.91,NNE,22,0.0,0.0,64,0.00,,---,0.00,VWS V14.00,2013-02-06 04:05:00,
2013-02-05 23:10:00,28.8,18.1,29.91,NNE,22,0.0,0.0,64,0.00,,---,0.00,VWS V14.00,2013-02-06 04:10:00,
2013-02-05 23:15:00,28.8,18.1,29.91,NNE,22,0.0,0.0,64,0.00,,---,0.00,VWS V14.00,2013-02-06 04:15:00,
2013-02-05 23:20:00,28.8,18.1,29.91,NNE,22,0.0,0.0,64,0.00,,---,0.00,VWS V14.00,2013-02-06 04:20:00,
2013-02-05 23:25:00,28.6,18.0,29.91,NE,45,0.0,0.0,64,0.00,,---,0.00,VWS V14.00,2013-02-06 04:25:00,
2013-02-05 23:30:00,28.6,18.0,29.91,NNE,22,0.0,0.0,64,0.00,,---,0.00,VWS V14.00,2013-02-06 04:30:00,
2013-02-05 23:35:00,28.6,18.3,29.91,NNE,22,0.0,0.0,65,0.00,,---,0.00,VWS V14.00,2013-02-06 04:35:00,
2013-02-05 23:40:00,28.6,18.3,29.91,NE,45,0.0,0.0,65,0.00,,---,0.00,VWS V14.00,2013-02-06 04:40:00,
2013-02-05 23:45:00,28.6,18.3,29.91,NE,45,0.0,0.0,65,0.00,,---,0.00,VWS V14.00,2013-02-06 04:45:00,
2013-02-05 23:50:00,28.6,18.3,29.91,NE,45,0.0,0.0,65,0.00,,---,0.00,VWS V14.00,2013-02-06 04:50:00,
2013-02-05 23:55:00,28.6,18.3,29.91,NE,45,0.0,0.0,65,0.00,,---,0.00,VWS V14.00,2013-02-06 04:55:00,